Date String (YYYY-MM-DD hh:mm:ss) UTC,Instrument flags,absolute air pressure of the measurement (hPa),sample flow rate (lpm),inlet stack bypass flow (lpm),air temperature of the measurement (°C),ambient temperature measured by the external sensor (°C),aerosol sample conditioner tube jacket temperature (°C),OPC LED temperature (°C),internal box temperature (°C),relative humidity of the measurement (%),span deviation,mass concentration of particles derived from Lorenz-Mie calculation of OPC scattering (μg/m³),mass concentration of particles derived from Lorenz-Mie calculation of OPC scattering (μg/m³),mass concentration of particles derived from Lorenz-Mie calculation of OPC scattering (μg/m³)
DateTimeUTC,F1_M11,P_M11,Q1_M11,Q2_M11,T1_M11,T2_M11,T3_M11,T4_M11,T5_M11,U1_M11,ZSPAN_M11,X0_M11,X2_M11,X1_M11
2023-08-04 09:00:00,SystemResetWarning,0832.6,4.99,000.00,029.9,028.6,000.0,038.3,031.5,30.9,0000.0,0007.67,0004.42,0003.88
2023-08-04 09:01:00,SystemResetWarning,0832.7,5.00,000.00,030.0,028.5,000.0,038.3,031.5,31.3,0000.0,0008.30,0004.43,0003.86
2023-08-04 09:02:00,SystemResetWarning,0832.6,4.99,000.00,030.0,026.9,000.0,038.2,031.3,31.3,0000.0,0008.42,0004.42,0003.85
2023-08-04 09:03:00,SystemResetWarning,0832.5,5.01,000.00,029.9,025.6,000.0,038.1,031.1,31.5,0000.0,0008.44,0004.43,0003.85
2023-08-04 09:04:00,SystemResetWarning,0832.5,5.00,000.00,029.7,025.4,000.0,038.1,030.8,32.6,0000.0,0008.51,0004.47,0003.86
2023-08-04 09:05:00,SystemResetWarning,0832.5,5.01,000.00,029.6,025.7,000.0,038.1,030.7,33.2,0000.0,0008.51,0004.47,0003.86
2023-08-04 09:06:00,SystemResetWarning,0832.6,4.99,000.00,029.6,026.1,000.0,038.1,030.8,32.6,0000.0,0008.40,0004.46,0003.86
2023-08-04 09:07:00,SystemResetWarning,0832.6,4.99,000.00,029.5,026.4,000.0,038.1,030.8,32.3,0000.0,0008.33,0004.46,0003.85
2023-08-04 09:08:00,SystemResetWarning,0832.6,5.00,000.00,029.5,026.8,000.0,038.1,030.9,32.1,0000.0,0008.43,0004.50,0003.83
2023-08-04 09:09:00,SystemResetWarning,0832.5,5.01,000.00,029.5,027.1,000.0,038.1,030.9,32.1,0000.0,0008.85,0004.46,0003.81
2023-08-04 09:10:00,SystemResetWarning,0832.6,5.01,000.00,029.5,027.3,000.0,038.1,031.0,32.4,0000.0,0008.94,0004.48,0003.81
2023-08-04 09:11:00,SystemResetWarning,0832.5,4.99,000.00,029.5,027.6,000.0,038.1,031.0,32.5,0000.0,0008.93,0004.47,0003.82
2023-08-04 09:12:00,SystemResetWarning,0832.5,5.00,000.00,029.6,027.7,000.0,038.1,031.0,32.5,0000.0,0008.63,0004.45,0003.84
2023-08-04 09:13:00,SystemResetWarning,0832.6,5.00,000.00,029.6,027.9,000.0,038.1,031.1,32.6,0000.0,0008.15,0004.46,0003.85
2023-08-04 09:14:00,SystemResetWarning,0832.6,5.00,000.00,029.6,028.0,000.0,038.1,031.1,32.7,0000.0,0008.14,0004.44,0003.85
2023-08-04 09:15:00,SystemResetWarning,0832.6,5.00,000.00,029.6,028.1,000.0,038.1,031.2,32.9,0000.0,0008.07,0004.39,0003.85
2023-08-04 09:16:00,SystemResetWarning,0832.6,5.00,000.00,029.6,028.2,000.0,038.1,031.2,32.7,0000.0,0008.06,0004.37,0003.85
2023-08-04 09:17:00,SystemResetWarning,0832.6,5.00,000.00,029.7,028.3,000.0,038.1,031.2,32.4,0000.0,0007.99,0004.34,0003.84
2023-08-04 09:18:00,SystemResetWarning,0832.6,5.00,000.00,029.7,028.3,000.0,038.1,031.2,32.2,0000.0,0008.04,0004.34,0003.84
2023-08-04 09:19:00,SystemResetWarning,0832.6,5.00,000.00,029.7,028.4,000.0,038.1,031.3,32.1,0000.0,0008.03,0004.32,0003.84
2023-08-04 09:20:00,SystemResetWarning,0832.7,4.99,000.00,029.7,028.4,000.0,038.1,031.3,32.1,0000.0,0007.67,0004.31,0003.83
2023-08-04 09:21:00,SystemResetWarning,0832.7,4.99,000.00,029.7,028.5,000.0,038.2,031.3,31.9,0000.0,0007.78,0004.29,0003.80
2023-08-04 09:22:00,SystemResetWarning,0832.7,5.00,000.00,029.8,028.5,000.0,038.2,031.3,31.5,0000.0,0007.70,0004.24,0003.76
2023-08-04 09:23:00,SystemResetWarning,0832.6,5.00,000.00,029.8,028.5,000.0,038.2,031.4,31.4,0000.0,0007.70,0004.23,0003.75
2023-08-04 09:24:00,SystemResetWarning,0832.7,5.01,000.00,029.8,028.6,000.0,038.2,031.4,31.6,0000.0,0007.73,0004.23,0003.72
2023-08-04 09:25:00,SystemResetWarning,0832.7,5.01,000.00,029.8,028.6,000.0,038.2,031.4,31.5,0000.0,0008.09,0004.23,0003.71
2023-08-04 09:26:00,SystemResetWarning,0832.7,5.00,000.00,029.9,028.5,000.0,038.2,031.4,31.2,0000.0,0008.29,0004.24,0003.71
2023-08-04 09:27:00,SystemResetWarning,0832.7,4.98,000.00,029.8,027.0,000.0,038.1,031.2,31.1,0000.0,0008.37,0004.24,0003.70
2023-08-04 09:28:00,SystemResetWarning,0832.6,5.02,000.00,029.7,025.5,000.0,038.0,030.9,31.3,0000.0,0008.53,0004.24,0003.68
2023-08-04 09:29:00,SystemResetWarning,0832.6,5.01,000.00,029.6,025.3,000.0,038.0,030.6,31.4,0000.0,0008.64,0004.25,0003.66
2023-08-04 09:30:00,SystemResetWarning,0832.6,5.00,000.00,029.5,025.5,000.0,038.0,030.5,31.7,0000.0,0008.96,0004.27,0003.66
2023-08-04 09:31:00,SystemResetWarning,0832.6,5.00,000.00,029.4,026.0,000.0,038.0,030.6,31.7,0000.0,0008.95,0004.28,0003.66
2023-08-04 09:32:00,SystemResetWarning,0832.6,5.00,000.00,029.4,026.4,000.0,038.0,030.7,31.6,0000.0,0008.70,0004.27,0003.68
2023-08-04 09:33:00,SystemResetWarning,0832.6,5.00,000.00,029.4,026.7,000.0,038.0,030.8,31.6,0000.0,0008.76,0004.29,0003.69
2023-08-04 09:34:00,SystemResetWarning,0832.7,5.00,000.00,029.4,027.0,000.0,038.0,030.8,31.6,0000.0,0008.70,0004.28,0003.70
2023-08-04 09:35:00,SystemResetWarning,0832.7,5.00,000.00,029.4,027.3,000.0,038.0,030.9,31.6,0000.0,0008.84,0004.27,0003.70
2023-08-04 09:36:00,SystemResetWarning,0832.7,5.00,000.00,029.4,027.5,000.0,038.0,030.9,31.7,0000.0,0008.85,0004.27,0003.70
2023-08-04 09:37:00,SystemResetWarning,0832.7,5.00,000.00,029.4,027.7,000.0,038.0,031.0,31.4,0000.0,0008.69,0004.26,0003.69
2023-08-04 09:38:00,SystemResetWarning,0832.7,5.00,000.00,029.5,027.8,000.0,038.0,031.0,31.5,0000.0,0008.72,0004.26,0003.69
2023-08-04 09:39:00,SystemResetWarning,0832.7,5.00,000.00,029.5,027.9,000.0,038.0,031.1,31.3,0000.0,0008.59,0004.25,0003.69
2023-08-04 09:40:00,SystemResetWarning,0832.7,5.00,000.00,029.5,028.0,000.0,038.0,031.1,31.1,0000.0,0008.49,0004.20,0003.69
2023-08-04 09:41:00,SystemResetWarning,0832.7,4.99,000.00,029.5,028.1,000.0,038.0,031.1,30.8,0000.0,0008.03,0004.16,0003.68
2023-08-04 09:42:00,SystemResetWarning,0832.7,5.00,000.00,029.5,028.2,000.0,038.0,031.1,30.3,0000.0,0007.94,0004.16,0003.69
2023-08-04 09:43:00,SystemResetWarning,0832.7,4.99,000.00,029.6,028.2,000.0,038.0,031.2,30.1,0000.0,0007.97,0004.15,0003.67
2023-08-04 09:44:00,SystemResetWarning,0832.6,5.00,000.00,029.6,028.3,000.0,038.0,031.2,29.8,0000.0,0007.90,0004.15,0003.67
2023-08-04 09:45:00,SystemResetWarning,0832.7,5.01,000.00,029.6,028.4,000.0,038.0,031.2,29.2,0000.0,0007.97,0004.18,0003.66
2023-08-04 09:46:00,SystemResetWarning,0832.7,5.00,000.00,029.6,028.4,000.0,038.1,031.3,28.5,0000.0,0007.81,0004.15,0003.65
2023-08-04 09:47:00,SystemResetWarning,0832.7,5.00,000.00,029.7,028.4,000.0,038.1,031.3,28.7,0000.0,0007.98,0004.14,0003.64
2023-08-04 09:48:00,SystemResetWarning,0832.7,5.00,000.00,029.7,028.5,000.0,038.1,031.3,28.5,0000.0,0007.92,0004.11,0003.63
2023-08-04 09:49:00,SystemResetWarning,0832.7,4.99,000.00,029.7,028.5,000.0,038.1,031.3,29.1,0000.0,0007.88,0004.08,0003.61
2023-08-04 09:50:00,SystemResetWarning,0832.7,4.99,000.00,029.7,028.5,000.0,038.1,031.3,29.4,0000.0,0007.79,0004.06,0003.60
2023-08-04 09:51:00,SystemResetWarning,0832.7,4.99,000.00,029.8,028.5,000.0,038.2,031.4,29.3,0000.0,0007.82,0004.09,0003.60
2023-08-04 09:52:00,SystemResetWarning,0832.6,5.01,000.00,029.8,028.6,000.0,038.2,031.4,29.6,0000.0,0007.85,0004.08,0003.60
2023-08-04 09:53:00,SystemResetWarning,0832.7,5.01,000.00,029.8,028.6,000.0,038.2,031.4,29.3,0000.0,0007.78,0004.04,0003.58
2023-08-04 09:54:00,SystemResetWarning,0832.7,5.00,000.00,029.8,028.6,000.0,038.2,031.4,29.0,0000.0,0007.75,0004.03,0003.58
2023-08-04 09:55:00,SystemResetWarning,0832.7,5.00,000.00,029.8,028.6,000.0,038.2,031.4,29.0,0000.0,0007.79,0004.03,0003.58
2023-08-04 09:56:00,SystemResetWarning,0832.7,4.98,000.00,029.9,027.7,000.0,038.2,031.4,27.8,0000.0,0007.91,0004.00,0003.56
2023-08-04 09:57:00,SystemResetWarning,0832.7,5.00,000.00,029.8,025.9,000.0,038.1,031.1,27.9,0000.0,0008.19,0003.99,0003.55
2023-08-04 09:58:00,SystemResetWarning,0832.7,5.01,000.00,029.7,025.3,000.0,038.0,030.8,28.3,0000.0,0007.93,0003.99,0003.55
2023-08-04 09:59:00,SystemResetWarning,0832.7,5.01,000.00,029.5,025.4,000.0,038.0,030.6,28.5,0000.0,0007.64,0004.00,0003.55
